Location: �mondeville
(49.4591°N, 1.3431°W)
Time: 02:48:49
(UTC+00:00)

Cosmos 1674 - Pass Details

Date: 22 October 2019
Orbit: 496 x 518 km, 82.5° (Epoch: 22 November)

Event Time Altitude Azimuth Distance (km) Brightness Sun altitude
Rises 04:48:20 0° 174° (S) 2,572 6.3 -18.3°
Reaches altitude 10° 04:50:29 10° 169° (S) 1,695 5.4 -17.9°
Maximum altitude 04:54:03 47° 95° (E) 665 3.7 -17.4°
Drops below altitude 10° 04:57:40 10° 20° (NNE) 1,714 5.6 -16.8°
Sets 04:59:50 0° 15° (NNE) 2,606 6.5 -16.4°
